Tracking 19709 objects as of 20-Jun-2019
HD Live streaming from Space Station
objects crossing your sky now

FENGYUN 1C DEB

Track FENGYUN 1C DEB now!
10-day predictions


NORAD ID: 32106
Int'l Code: 1999-025CQY
Perigee: 792.0 km
Apogee: 1,015.3 km
Inclination: 101.5 °
Period: 102.9 minutes
Semi major axis: 7274 km
RCS: 0.0084 m2 (small)
Launch date: May 10, 1999
Source: People's Republic of China (PRC)
Launch site: Taiyaun Space Center, China (TSC)

Note: This is SATELLITE DEBRIS
aabbcc
Your satellite tracking list
Your tracking list is empty




NASA's NSSDC Master Catalog

Two Line Element Set (TLE):
1 32106U 99025CQY 19169.88531346  .00000612  00000-0  42186-3 0  9994
2 32106 101.4969 196.8207 0153452 345.4792  14.1979 13.99222101605272
Source of the keplerian elements: AFSPC